MBU455 EDDP-LGIR

Flight info

Callsign MBU455
Flight time 2h 38m
Altitude 39000
Route EDDP/08R DRN2E DRN Z21 OMELO DCT GOLOP DCT ODNEM DCT BERVA DCT XOMBA DCT KEROP DCT RAXAD DCT MAKED UL617 KEA UL607 GIVIS T514 XAVIS XAVIS1A LGIR/27
Aircraft A20N/M-V/N

Departure

Time 2026-05-05 15:33
Airport Leipzig/Halle Airport (EDDP)

Arrival

Time 2026-05-05 18:12
Airport Heraklion International Nikos Kazantzakis Airport (LGIR)
Time Latitude Longitude Altitude Speed Heading
2026-05-05 15:11 51.41894 12.22110 441 ft 0 kts 15°
2026-05-05 15:25 51.41893 12.22109 444 ft 1 kts 15°
2026-05-05 15:25 51.41877 12.22102 434 ft 3 kts 15°
2026-05-05 15:25 51.41857 12.22094 441 ft 3 kts 15°
2026-05-05 15:25 51.41838 12.22085 446 ft 3 kts 15°
2026-05-05 15:26 51.41818 12.22077 447 ft 3 kts 15°
2026-05-05 15:26 51.41800 12.22069 447 ft 2 kts 15°
2026-05-05 15:26 51.41796 12.22067 447 ft 0 kts 15°
2026-05-05 15:28 51.41799 12.22068 447 ft 1 kts 13°
2026-05-05 15:28 51.41808 12.22058 447 ft 2 kts 318°
2026-05-05 15:28 51.41815 12.22013 438 ft 7 kts 285°
2026-05-05 15:29 51.41832 12.21903 440 ft 13 kts 283°
2026-05-05 15:29 51.41858 12.21739 437 ft 17 kts 284°
2026-05-05 15:29 51.41892 12.21526 437 ft 22 kts 286°
2026-05-05 15:29 51.41937 12.21288 427 ft 21 kts 287°
2026-05-05 15:30 51.41977 12.21058 428 ft 22 kts 285°
2026-05-05 15:30 51.41970 12.20898 421 ft 11 kts 202°
2026-05-05 15:30 51.41890 12.20854 427 ft 13 kts 194°
2026-05-05 15:30 51.41796 12.20813 429 ft 15 kts 194°
2026-05-05 15:31 51.41695 12.20769 429 ft 15 kts 194°
2026-05-05 15:31 51.41594 12.20730 438 ft 14 kts 195°
2026-05-05 15:31 51.41496 12.20684 440 ft 16 kts 195°
2026-05-05 15:31 51.41388 12.20636 438 ft 17 kts 195°
2026-05-05 15:32 51.41277 12.20585 438 ft 14 kts 196°
2026-05-05 15:32 51.41198 12.20558 435 ft 12 kts 169°
2026-05-05 15:32 51.41170 12.20683 438 ft 15 kts 86°
2026-05-05 15:32 51.41182 12.20905 443 ft 40 kts 86°
2026-05-05 15:33 51.41219 12.21692 451 ft 99 kts 85°
2026-05-05 15:33 51.41284 12.23060 463 ft 144 kts 85°
2026-05-05 15:33 51.41378 12.24795 739 ft 157 kts 83°
2026-05-05 15:33 51.41433 12.26430 1502 ft 143 kts 83°
2026-05-05 15:34 51.41460 12.28038 1951 ft 147 kts 84°
2026-05-05 15:34 51.41508 12.29707 2380 ft 156 kts 83°
2026-05-05 15:34 51.41604 12.31505 2682 ft 173 kts 83°
2026-05-05 15:34 51.41718 12.33520 2932 ft 191 kts 83°
2026-05-05 15:35 51.41829 12.35744 3121 ft 209 kts 84°
2026-05-05 15:35 51.41940 12.38160 3287 ft 228 kts 85°
2026-05-05 15:35 51.42059 12.40778 3517 ft 243 kts 85°
2026-05-05 15:35 51.42188 12.43581 3737 ft 260 kts 85°
2026-05-05 15:36 51.42324 12.46501 4258 ft 264 kts 85°
2026-05-05 15:36 51.42465 12.49458 4783 ft 268 kts 85°
2026-05-05 15:36 51.42607 12.52451 5278 ft 271 kts 86°
2026-05-05 15:36 51.42645 12.55481 5949 ft 278 kts 98°
2026-05-05 15:37 51.42093 12.58426 6964 ft 278 kts 118°
2026-05-05 15:37 51.41075 12.61081 7818 ft 282 kts 124°
2026-05-05 15:37 51.40004 12.63751 8744 ft 287 kts 124°
2026-05-05 15:37 51.38923 12.66462 9657 ft 291 kts 124°
2026-05-05 15:38 51.37820 12.69236 10348 ft 303 kts 124°
2026-05-05 15:38 51.36644 12.72192 10666 ft 327 kts 124°
2026-05-05 15:38 51.35385 12.75356 11098 ft 344 kts 124°
2026-05-05 15:38 51.34095 12.78607 11902 ft 348 kts 124°
2026-05-05 15:39 51.32794 12.81885 12719 ft 352 kts 124°
2026-05-05 15:39 51.31490 12.85162 13528 ft 356 kts 124°
2026-05-05 15:39 51.30153 12.88516 14253 ft 360 kts 125°
2026-05-05 15:39 51.28800 12.91904 14953 ft 364 kts 125°
2026-05-05 15:40 51.27428 12.95334 15645 ft 369 kts 125°
2026-05-05 15:40 51.26039 12.98800 16333 ft 373 kts 125°
2026-05-05 15:40 51.24635 13.02300 17028 ft 377 kts 126°
2026-05-05 15:40 51.23211 13.05842 17693 ft 381 kts 126°
2026-05-05 15:41 51.21770 13.09423 18323 ft 386 kts 126°
2026-05-05 15:41 51.20316 13.13031 18932 ft 388 kts 126°
2026-05-05 15:41 51.18869 13.16617 19537 ft 392 kts 126°
2026-05-05 15:41 51.17387 13.20284 20104 ft 395 kts 126°
2026-05-05 15:42 51.15897 13.23985 20699 ft 399 kts 126°
2026-05-05 15:42 51.14406 13.27733 21282 ft 402 kts 125°
2026-05-05 15:42 51.12908 13.31513 21852 ft 406 kts 125°
2026-05-05 15:42 51.11393 13.35327 22424 ft 409 kts 125°
2026-05-05 15:43 51.09865 13.39162 22982 ft 413 kts 126°
2026-05-05 15:43 51.08319 13.43032 23518 ft 416 kts 126°
2026-05-05 15:43 51.06780 13.46876 23983 ft 419 kts 126°
2026-05-05 15:43 51.05209 13.50794 24454 ft 422 kts 126°
2026-05-05 15:44 51.03626 13.54735 24903 ft 425 kts 126°
2026-05-05 15:44 51.02027 13.58710 25349 ft 428 kts 126°
2026-05-05 15:44 51.00419 13.62714 25786 ft 431 kts 126°
2026-05-05 15:44 50.98815 13.66750 26201 ft 435 kts 126°
2026-05-05 15:45 50.97198 13.70828 26631 ft 438 kts 126°
2026-05-05 15:45 50.95570 13.74927 27028 ft 440 kts 126°
2026-05-05 15:45 50.93950 13.78997 27415 ft 444 kts 126°
2026-05-05 15:45 50.92193 13.83017 27795 ft 443 kts 131°
2026-05-05 15:46 50.90288 13.86873 28165 ft 446 kts 131°
2026-05-05 15:46 50.88372 13.90760 28530 ft 449 kts 131°
2026-05-05 15:46 50.86445 13.94674 28877 ft 451 kts 131°
2026-05-05 15:46 50.84509 13.98605 29218 ft 454 kts 131°
2026-05-05 15:47 50.82557 14.02548 29548 ft 456 kts 132°
2026-05-05 15:47 50.81247 14.05152 29754 ft 458 kts 132°
2026-05-05 15:47 50.78595 14.10374 30178 ft 461 kts 132°
2026-05-05 15:47 50.76585 14.14323 30505 ft 462 kts 132°
2026-05-05 15:48 50.74563 14.18295 30789 ft 465 kts 132°
2026-05-05 15:48 50.72538 14.22274 31184 ft 464 kts 132°
2026-05-05 15:48 50.70517 14.26242 31596 ft 463 kts 132°
2026-05-05 15:48 50.68501 14.30196 32014 ft 462 kts 132°
2026-05-05 15:49 50.66484 14.34144 32402 ft 461 kts 132°
2026-05-05 15:49 50.64473 14.38076 32795 ft 460 kts 132°
2026-05-05 15:49 50.62463 14.41998 33166 ft 460 kts 132°
2026-05-05 15:49 50.60457 14.45908 33509 ft 459 kts 132°
2026-05-05 15:50 50.58460 14.49724 33847 ft 457 kts 135°
2026-05-05 15:50 50.56268 14.53336 34106 ft 456 kts 137°
2026-05-05 15:50 50.54055 14.56905 34366 ft 456 kts 137°
2026-05-05 15:50 50.51848 14.60477 34643 ft 456 kts 137°
2026-05-05 15:51 50.49641 14.64052 34898 ft 455 kts 137°
2026-05-05 15:51 50.47437 14.67621 35153 ft 455 kts 137°
2026-05-05 15:51 50.45230 14.71190 35396 ft 455 kts 137°
2026-05-05 15:51 50.43025 14.74750 35643 ft 455 kts 137°
2026-05-05 15:52 50.40821 14.78317 35876 ft 455 kts 137°
2026-05-05 15:52 50.38647 14.81821 36101 ft 455 kts 138°
2026-05-05 15:52 50.36434 14.85363 36322 ft 454 kts 138°
2026-05-05 15:52 50.34223 14.88898 36542 ft 454 kts 138°
2026-05-05 15:53 50.32016 14.92426 36759 ft 454 kts 138°
2026-05-05 15:53 50.29808 14.95958 36973 ft 454 kts 138°
2026-05-05 15:53 50.27598 14.99486 37172 ft 454 kts 138°
2026-05-05 15:53 50.25391 15.03001 37372 ft 453 kts 138°
2026-05-05 15:54 50.23183 15.06517 37554 ft 453 kts 138°
2026-05-05 15:54 50.20975 15.10027 37739 ft 453 kts 138°
2026-05-05 15:54 50.18768 15.13531 37923 ft 452 kts 138°
2026-05-05 15:54 50.16592 15.16983 38098 ft 452 kts 138°
2026-05-05 15:55 50.14385 15.20477 38272 ft 452 kts 138°
2026-05-05 15:55 50.12183 15.23960 38420 ft 452 kts 138°
2026-05-05 15:55 50.09978 15.27442 38555 ft 451 kts 138°
2026-05-05 15:55 50.07773 15.30919 38659 ft 451 kts 138°
2026-05-05 15:56 50.05563 15.34399 38743 ft 452 kts 138°
2026-05-05 15:56 50.01142 15.41346 38750 ft 451 kts 138°
2026-05-05 15:57 49.96754 15.48223 38748 ft 451 kts 138°
2026-05-05 15:57 49.92332 15.55131 38748 ft 451 kts 138°
2026-05-05 15:58 49.87904 15.62032 38750 ft 451 kts 138°
2026-05-05 15:58 49.83469 15.68924 38754 ft 451 kts 138°
2026-05-05 15:59 49.79034 15.75796 38754 ft 451 kts 138°
2026-05-05 15:59 49.74623 15.82615 38754 ft 451 kts 138°
2026-05-05 16:00 49.70179 15.89462 38756 ft 451 kts 137°
2026-05-05 16:00 49.65735 15.96294 38757 ft 451 kts 138°
2026-05-05 16:01 49.61289 16.03111 38757 ft 451 kts 138°
2026-05-05 16:01 49.56865 16.09872 38767 ft 450 kts 138°
2026-05-05 16:02 49.52410 16.16663 38766 ft 451 kts 138°
2026-05-05 16:02 49.47948 16.23448 38768 ft 451 kts 138°
2026-05-05 16:03 49.43482 16.30219 38775 ft 451 kts 138°
2026-05-05 16:03 49.39043 16.36932 38773 ft 451 kts 138°
2026-05-05 16:04 49.34567 16.43681 38770 ft 451 kts 138°
2026-05-05 16:04 49.30083 16.50427 38775 ft 452 kts 138°
2026-05-05 16:05 49.25594 16.57160 38776 ft 452 kts 138°
2026-05-05 16:05 49.21094 16.63892 38784 ft 452 kts 138°
2026-05-05 16:06 49.16619 16.70570 38782 ft 453 kts 138°
2026-05-05 16:06 49.12110 16.77280 38779 ft 453 kts 138°
2026-05-05 16:07 49.07594 16.83982 38776 ft 453 kts 138°
2026-05-05 16:07 49.03067 16.90681 38777 ft 454 kts 138°
2026-05-05 16:08 48.98566 16.97325 38785 ft 453 kts 138°
2026-05-05 16:08 48.94030 17.04003 38793 ft 454 kts 139°
2026-05-05 16:09 48.89492 17.10668 38784 ft 454 kts 138°
2026-05-05 16:09 48.84952 17.17326 38785 ft 454 kts 138°
2026-05-05 16:10 48.80565 17.24216 38774 ft 455 kts 135°
2026-05-05 16:10 48.76233 17.31207 38779 ft 455 kts 136°
2026-05-05 16:11 48.71902 17.38101 38787 ft 455 kts 136°
2026-05-05 16:12 48.62930 17.51556 38810 ft 452 kts 145°
2026-05-05 16:12 48.57633 17.56561 38815 ft 448 kts 157°
2026-05-05 16:13 48.49057 17.61902 38822 ft 446 kts 161°
2026-05-05 16:13 48.43301 17.65426 38817 ft 447 kts 160°
2026-05-05 16:14 48.31778 17.72457 38825 ft 447 kts 160°
2026-05-05 16:15 48.20273 17.79439 38838 ft 448 kts 160°
2026-05-05 16:16 48.08709 17.86418 38852 ft 448 kts 160°
2026-05-05 16:17 48.00064 17.91618 38863 ft 449 kts 160°
2026-05-05 16:18 47.91370 17.96826 38873 ft 449 kts 160°
2026-05-05 16:19 47.82670 18.02021 38878 ft 449 kts 160°
2026-05-05 16:19 47.74205 18.07879 38879 ft 452 kts 150°
2026-05-05 16:20 47.63958 18.18779 38882 ft 453 kts 146°
2026-05-05 16:22 47.51201 18.32430 38903 ft 454 kts 146°
2026-05-05 16:23 47.40944 18.43339 38909 ft 454 kts 146°
2026-05-05 16:23 47.33248 18.51489 38913 ft 454 kts 146°
2026-05-05 16:24 47.28148 18.56873 38917 ft 454 kts 146°
2026-05-05 16:25 47.20444 18.64983 38919 ft 454 kts 146°
2026-05-05 16:25 47.12741 18.73063 38921 ft 453 kts 145°
2026-05-05 16:26 47.02500 18.83760 38916 ft 454 kts 145°
2026-05-05 16:27 46.97353 18.89116 38920 ft 453 kts 145°
2026-05-05 16:27 46.92208 18.94458 38912 ft 453 kts 145°
2026-05-05 16:28 46.87093 18.99755 38920 ft 453 kts 145°
2026-05-05 16:28 46.81943 19.05076 38915 ft 454 kts 146°
2026-05-05 16:29 46.76787 19.10391 38922 ft 454 kts 146°
2026-05-05 16:29 46.71631 19.15693 38914 ft 454 kts 146°
2026-05-05 16:30 46.66505 19.20952 38920 ft 454 kts 146°
2026-05-05 16:30 46.61342 19.26236 38918 ft 454 kts 146°
2026-05-05 16:31 46.56173 19.31514 38918 ft 454 kts 146°
2026-05-05 16:31 46.51000 19.36783 38923 ft 454 kts 146°
2026-05-05 16:32 46.45826 19.42041 38925 ft 454 kts 146°
2026-05-05 16:32 46.40679 19.47258 38924 ft 454 kts 146°
2026-05-05 16:33 46.35501 19.52495 38925 ft 454 kts 146°
2026-05-05 16:33 46.30328 19.57715 38935 ft 454 kts 146°
2026-05-05 16:34 46.25130 19.62947 38933 ft 454 kts 146°
2026-05-05 16:34 46.19931 19.68142 38926 ft 454 kts 147°
2026-05-05 16:35 46.14448 19.72527 38926 ft 454 kts 155°
2026-05-05 16:35 46.08761 19.76488 38926 ft 454 kts 154°
2026-05-05 16:36 46.03085 19.80479 38926 ft 454 kts 154°
2026-05-05 16:36 45.97443 19.84448 38924 ft 454 kts 154°
2026-05-05 16:37 45.91761 19.88433 38925 ft 455 kts 154°
2026-05-05 16:37 45.86073 19.92412 38925 ft 455 kts 154°
2026-05-05 16:38 45.80376 19.96385 38930 ft 455 kts 154°
2026-05-05 16:38 45.74675 20.00352 38924 ft 456 kts 154°
2026-05-05 16:39 45.69010 20.04286 38932 ft 456 kts 154°
2026-05-05 16:39 45.63288 20.08250 38933 ft 457 kts 154°
2026-05-05 16:40 45.57569 20.12202 38935 ft 457 kts 154°
2026-05-05 16:40 45.51834 20.16157 38932 ft 458 kts 154°
2026-05-05 16:41 45.46099 20.20103 38934 ft 458 kts 154°
2026-05-05 16:41 45.40396 20.24018 38936 ft 458 kts 154°
2026-05-05 16:42 45.34645 20.27957 38939 ft 459 kts 154°
2026-05-05 16:42 45.28891 20.31888 38936 ft 459 kts 154°
2026-05-05 16:43 45.23128 20.35818 38939 ft 460 kts 154°
2026-05-05 16:43 45.17357 20.39743 38936 ft 460 kts 154°
2026-05-05 16:44 45.11626 20.43633 38934 ft 460 kts 154°
2026-05-05 16:44 45.05846 20.47547 38937 ft 460 kts 154°
2026-05-05 16:45 45.00068 20.51451 38938 ft 461 kts 154°
2026-05-05 16:45 44.94281 20.55353 38935 ft 461 kts 154°
2026-05-05 16:46 44.88527 20.59223 38937 ft 461 kts 154°
2026-05-05 16:46 44.82736 20.63110 38935 ft 461 kts 154°
2026-05-05 16:47 44.76939 20.66991 38932 ft 461 kts 155°
2026-05-05 16:47 44.71139 20.70866 38935 ft 461 kts 154°
2026-05-05 16:48 44.65342 20.74731 38937 ft 461 kts 154°
2026-05-05 16:48 44.59577 20.78565 38940 ft 461 kts 154°
2026-05-05 16:49 44.53779 20.82414 38944 ft 461 kts 154°
2026-05-05 16:49 44.47974 20.86258 38939 ft 461 kts 154°
2026-05-05 16:50 44.42172 20.90092 38937 ft 461 kts 154°
2026-05-05 16:50 44.36414 20.93888 38933 ft 461 kts 154°
2026-05-05 16:51 44.30616 20.97703 38934 ft 461 kts 154°
2026-05-05 16:51 44.24818 21.01509 38926 ft 461 kts 154°
2026-05-05 16:52 44.19015 21.05310 38926 ft 461 kts 154°
2026-05-05 16:52 44.13209 21.09104 38926 ft 461 kts 154°
2026-05-05 16:53 44.07438 21.12868 38924 ft 461 kts 154°
2026-05-05 16:53 44.01624 21.16652 38924 ft 462 kts 155°
2026-05-05 16:54 43.95801 21.20433 38928 ft 462 kts 155°
2026-05-05 16:54 43.89976 21.24207 38924 ft 462 kts 155°
2026-05-05 16:55 43.84177 21.27956 38916 ft 463 kts 155°
2026-05-05 16:55 43.78329 21.31728 38924 ft 464 kts 155°
2026-05-05 16:56 43.72478 21.35495 38934 ft 464 kts 155°
2026-05-05 16:56 43.66617 21.39259 38944 ft 465 kts 155°
2026-05-05 16:57 43.60747 21.43022 38940 ft 465 kts 155°
2026-05-05 16:57 43.54910 21.46755 38948 ft 466 kts 155°
2026-05-05 16:58 43.49030 21.50508 38956 ft 466 kts 155°
2026-05-05 16:58 43.43143 21.54256 38956 ft 465 kts 155°
2026-05-05 16:59 43.37280 21.57982 38953 ft 464 kts 155°
2026-05-05 16:59 43.31441 21.61684 38958 ft 465 kts 155°
2026-05-05 17:00 43.25563 21.65404 38965 ft 465 kts 155°
2026-05-05 17:00 43.19687 21.69114 38967 ft 465 kts 155°
2026-05-05 17:01 43.13800 21.72823 38956 ft 466 kts 155°
2026-05-05 17:01 43.07951 21.76500 38961 ft 466 kts 155°
2026-05-05 17:02 43.02057 21.80198 38963 ft 466 kts 155°
2026-05-05 17:02 42.96152 21.83895 38974 ft 467 kts 155°
2026-05-05 17:03 42.90247 21.87584 38969 ft 467 kts 155°
2026-05-05 17:03 42.84329 21.91273 38974 ft 468 kts 155°
2026-05-05 17:04 42.78449 21.94931 38989 ft 468 kts 155°
2026-05-05 17:04 42.72518 21.98612 38987 ft 469 kts 155°
2026-05-05 17:05 42.66584 22.02289 38986 ft 469 kts 155°
2026-05-05 17:05 42.60648 22.05958 38991 ft 469 kts 155°
2026-05-05 17:06 42.54749 22.09597 38991 ft 469 kts 155°
2026-05-05 17:06 42.48802 22.13258 39018 ft 469 kts 155°
2026-05-05 17:07 42.42851 22.16916 39004 ft 470 kts 155°
2026-05-05 17:07 42.36899 22.20567 39014 ft 470 kts 155°
2026-05-05 17:08 42.31876 22.23367 39013 ft 470 kts 161°
2026-05-05 17:08 42.24511 22.25816 39014 ft 469 kts 171°
2026-05-05 17:09 42.18074 22.27287 38996 ft 469 kts 171°
2026-05-05 17:09 42.11641 22.28798 38997 ft 470 kts 171°
2026-05-05 17:10 42.06291 22.30057 38998 ft 470 kts 171°
2026-05-05 17:10 41.98815 22.31812 38991 ft 470 kts 171°
2026-05-05 17:11 41.93463 22.33065 38994 ft 470 kts 171°
2026-05-05 17:11 41.87025 22.34569 38984 ft 470 kts 171°
2026-05-05 17:12 41.80581 22.36072 38988 ft 471 kts 171°
2026-05-05 17:12 41.73082 22.37816 38991 ft 471 kts 171°
2026-05-05 17:13 41.67709 22.39064 38993 ft 472 kts 171°
2026-05-05 17:13 41.61239 22.40563 38984 ft 472 kts 171°
2026-05-05 17:14 41.54758 22.42064 38989 ft 473 kts 170°
2026-05-05 17:14 41.48280 22.43602 38988 ft 474 kts 171°
2026-05-05 17:15 41.41822 22.45066 38994 ft 474 kts 172°
2026-05-05 17:15 41.35269 22.46536 38991 ft 475 kts 171°
2026-05-05 17:16 41.28795 22.48017 38995 ft 475 kts 171°
2026-05-05 17:16 41.22280 22.49514 38987 ft 476 kts 171°
2026-05-05 17:17 41.15774 22.51172 38989 ft 477 kts 166°
2026-05-05 17:17 41.09527 22.54121 38980 ft 477 kts 155°
2026-05-05 17:18 41.03538 22.57924 38979 ft 478 kts 154°
2026-05-05 17:18 40.97569 22.61667 38976 ft 478 kts 155°
2026-05-05 17:19 40.91529 22.65377 38978 ft 478 kts 155°
2026-05-05 17:19 40.85479 22.69051 38979 ft 479 kts 155°
2026-05-05 17:20 40.79420 22.72720 38979 ft 480 kts 155°
2026-05-05 17:20 40.73391 22.76363 38982 ft 480 kts 156°
2026-05-05 17:21 40.67318 22.80029 38985 ft 482 kts 156°
2026-05-05 17:22 40.58073 22.85583 38994 ft 489 kts 156°
2026-05-05 17:22 40.51888 22.89290 38993 ft 488 kts 157°
2026-05-05 17:23 40.45698 22.92994 38996 ft 489 kts 157°
2026-05-05 17:23 40.39508 22.96689 38994 ft 489 kts 157°
2026-05-05 17:24 40.33353 23.00357 38992 ft 489 kts 157°
2026-05-05 17:24 40.27159 23.04041 38991 ft 489 kts 157°
2026-05-05 17:25 40.20964 23.07718 38993 ft 489 kts 157°
2026-05-05 17:25 40.14765 23.11390 39000 ft 489 kts 157°
2026-05-05 17:26 40.08562 23.15056 39002 ft 489 kts 157°
2026-05-05 17:26 40.02356 23.18718 39004 ft 489 kts 157°
2026-05-05 17:27 39.96190 23.22348 39008 ft 489 kts 157°
2026-05-05 17:27 39.89980 23.25997 39003 ft 490 kts 157°
2026-05-05 17:28 39.83769 23.29640 39008 ft 490 kts 157°
2026-05-05 17:28 39.77560 23.33275 39016 ft 489 kts 157°
2026-05-05 17:29 39.71350 23.36902 39017 ft 489 kts 157°
2026-05-05 17:29 39.65139 23.40523 39015 ft 489 kts 157°
2026-05-05 17:30 39.58898 23.43879 39015 ft 488 kts 160°
2026-05-05 17:30 39.52598 23.47174 39014 ft 488 kts 160°
2026-05-05 17:31 39.46267 23.50388 39015 ft 488 kts 161°
2026-05-05 17:31 39.39927 23.53553 39018 ft 488 kts 161°
2026-05-05 17:32 39.33589 23.56703 39016 ft 489 kts 161°
2026-05-05 17:32 39.27281 23.59832 39012 ft 489 kts 161°
2026-05-05 17:33 39.20930 23.62976 39019 ft 489 kts 161°
2026-05-05 17:33 39.14569 23.66119 39020 ft 490 kts 161°
2026-05-05 17:34 39.08207 23.69257 39023 ft 490 kts 161°
2026-05-05 17:34 39.01834 23.72393 39028 ft 490 kts 161°
2026-05-05 17:35 38.95461 23.75524 39026 ft 490 kts 161°
2026-05-05 17:35 38.89124 23.78631 39025 ft 491 kts 161°
2026-05-05 17:36 38.82743 23.81753 39032 ft 491 kts 161°
2026-05-05 17:36 38.76359 23.84871 39044 ft 491 kts 161°
2026-05-05 17:37 38.69964 23.87989 39043 ft 491 kts 161°
2026-05-05 17:37 38.63575 23.91098 39045 ft 492 kts 162°
2026-05-05 17:38 38.57183 23.94202 39050 ft 491 kts 162°
2026-05-05 17:38 38.50833 23.97279 39053 ft 492 kts 162°
2026-05-05 17:39 38.44436 24.00373 39051 ft 492 kts 162°
2026-05-05 17:39 38.38040 24.03461 39052 ft 492 kts 162°
2026-05-05 17:40 38.31634 24.06549 39058 ft 492 kts 162°
2026-05-05 17:40 38.25229 24.09631 39059 ft 492 kts 162°
2026-05-05 17:41 38.18823 24.12706 39064 ft 492 kts 162°
2026-05-05 17:41 38.12450 24.15760 39065 ft 493 kts 162°
2026-05-05 17:42 38.06029 24.18831 39067 ft 493 kts 162°
2026-05-05 17:42 37.99605 24.21898 39071 ft 493 kts 162°
2026-05-05 17:43 37.93180 24.24959 39074 ft 494 kts 162°
2026-05-05 17:43 37.86749 24.28018 39076 ft 494 kts 162°
2026-05-05 17:44 37.80311 24.31074 39074 ft 494 kts 162°
2026-05-05 17:44 37.73915 24.34104 39076 ft 494 kts 162°
2026-05-05 17:45 37.67472 24.37152 39071 ft 495 kts 162°
2026-05-05 17:45 37.61023 24.40197 39073 ft 495 kts 162°
2026-05-05 17:46 37.54569 24.43239 39072 ft 495 kts 162°
2026-05-05 17:46 37.48112 24.46276 39070 ft 495 kts 162°
2026-05-05 17:47 37.41699 24.49286 39067 ft 495 kts 162°
2026-05-05 17:47 37.35239 24.52314 39067 ft 495 kts 163°
2026-05-05 17:48 37.28777 24.55336 39065 ft 495 kts 163°
2026-05-05 17:48 37.22309 24.58356 38863 ft 497 kts 163°
2026-05-05 17:48 37.19066 24.59867 38354 ft 498 kts 163°
2026-05-05 17:49 37.15809 24.61384 37665 ft 499 kts 162°
2026-05-05 17:49 37.12554 24.62898 36995 ft 499 kts 162°
2026-05-05 17:49 37.09341 24.64392 36351 ft 499 kts 162°
2026-05-05 17:49 37.06081 24.65907 35719 ft 500 kts 162°
2026-05-05 17:50 37.02813 24.67423 35104 ft 502 kts 162°
2026-05-05 17:50 36.99531 24.68945 34498 ft 505 kts 162°
2026-05-05 17:50 36.96230 24.70474 33890 ft 507 kts 162°
2026-05-05 17:50 36.92920 24.72008 33201 ft 508 kts 162°
2026-05-05 17:51 36.89599 24.73543 32551 ft 511 kts 162°
2026-05-05 17:51 36.86255 24.75087 31907 ft 514 kts 162°
2026-05-05 17:51 36.82892 24.76639 31280 ft 516 kts 161°
2026-05-05 17:51 36.79514 24.78196 30669 ft 519 kts 161°
2026-05-05 17:52 36.76173 24.79735 30009 ft 519 kts 161°
2026-05-05 17:52 36.72754 24.81309 29214 ft 514 kts 161°
2026-05-05 17:52 36.69474 24.82819 28464 ft 505 kts 161°
2026-05-05 17:52 36.66212 24.84320 27725 ft 495 kts 161°
2026-05-05 17:53 36.63005 24.85792 27003 ft 486 kts 161°
2026-05-05 17:53 36.59860 24.87235 26304 ft 478 kts 161°
2026-05-05 17:53 36.56758 24.88656 25620 ft 473 kts 161°
2026-05-05 17:53 36.53681 24.90064 24950 ft 469 kts 161°
2026-05-05 17:54 36.50620 24.91463 24308 ft 469 kts 161°
2026-05-05 17:54 36.47565 24.92859 23679 ft 467 kts 161°
2026-05-05 17:54 36.44517 24.94250 22915 ft 465 kts 161°
2026-05-05 17:54 36.41488 24.95631 22174 ft 463 kts 161°
2026-05-05 17:55 36.38511 24.96988 21476 ft 460 kts 161°
2026-05-05 17:55 36.35524 24.98349 20761 ft 455 kts 161°
2026-05-05 17:55 36.32573 24.99692 20084 ft 448 kts 161°
2026-05-05 17:55 36.29670 25.01013 19500 ft 441 kts 161°
2026-05-05 17:56 36.26818 25.02310 18958 ft 432 kts 161°
2026-05-05 17:56 36.24016 25.03583 18434 ft 425 kts 161°
2026-05-05 17:56 36.21273 25.04827 17915 ft 415 kts 161°
2026-05-05 17:56 36.18585 25.06045 17389 ft 407 kts 161°
2026-05-05 17:57 36.15951 25.07237 16869 ft 401 kts 161°
2026-05-05 17:57 36.13365 25.08407 16380 ft 400 kts 160°
2026-05-05 17:57 36.10768 25.09581 15873 ft 394 kts 160°
2026-05-05 17:57 36.08199 25.10742 15387 ft 392 kts 160°
2026-05-05 17:58 36.05649 25.11893 14892 ft 389 kts 160°
2026-05-05 17:58 36.03124 25.13033 14431 ft 385 kts 160°
2026-05-05 17:58 36.00623 25.14162 13962 ft 381 kts 160°
2026-05-05 17:58 35.98149 25.15277 13445 ft 377 kts 160°
2026-05-05 17:59 35.95699 25.16382 12922 ft 373 kts 160°
2026-05-05 17:59 35.93268 25.17478 12315 ft 372 kts 159°
2026-05-05 17:59 35.90872 25.18556 11712 ft 372 kts 159°
2026-05-05 17:59 35.88446 25.19647 11128 ft 371 kts 159°
2026-05-05 18:00 35.86026 25.20734 10570 ft 369 kts 159°
2026-05-05 18:00 35.83632 25.21809 10093 ft 363 kts 159°
2026-05-05 18:00 35.81275 25.22867 9575 ft 359 kts 159°
2026-05-05 18:00 35.78953 25.23909 9053 ft 350 kts 159°
2026-05-05 18:01 35.76704 25.24916 8528 ft 339 kts 159°
2026-05-05 18:01 35.74519 25.25895 8025 ft 329 kts 159°
2026-05-05 18:01 35.72395 25.26845 7513 ft 321 kts 159°
2026-05-05 18:01 35.70320 25.27773 7023 ft 314 kts 158°
2026-05-05 18:02 35.68290 25.28681 6545 ft 307 kts 158°
2026-05-05 18:02 35.66331 25.29558 6106 ft 299 kts 159°
2026-05-05 18:02 35.64407 25.30420 5791 ft 291 kts 159°
2026-05-05 18:02 35.62515 25.31269 5446 ft 288 kts 159°
2026-05-05 18:03 35.60643 25.32106 5137 ft 285 kts 160°
2026-05-05 18:03 35.58786 25.32936 4869 ft 285 kts 160°
2026-05-05 18:03 35.56926 25.33767 4612 ft 283 kts 160°
2026-05-05 18:03 35.55087 25.34587 4357 ft 281 kts 161°
2026-05-05 18:04 35.53249 25.35406 4106 ft 280 kts 161°
2026-05-05 18:04 35.51426 25.36219 3849 ft 278 kts 161°
2026-05-05 18:04 35.49611 25.37027 3591 ft 275 kts 161°
2026-05-05 18:04 35.47845 25.37814 3368 ft 275 kts 162°
2026-05-05 18:05 35.46045 25.38614 3110 ft 274 kts 162°
2026-05-05 18:05 35.44316 25.39508 3009 ft 265 kts 152°
2026-05-05 18:05 35.42759 25.40595 2956 ft 252 kts 152°
2026-05-05 18:05 35.41266 25.41635 2818 ft 244 kts 152°
2026-05-05 18:06 35.39819 25.42633 2739 ft 232 kts 152°
2026-05-05 18:06 35.38907 25.43258 2724 ft 222 kts 152°
2026-05-05 18:06 35.37072 25.43933 2696 ft 196 kts 191°
2026-05-05 18:06 35.35916 25.43373 2739 ft 168 kts 223°
2026-05-05 18:07 35.35212 25.42235 2742 ft 171 kts 249°
2026-05-05 18:07 35.34723 25.40929 2620 ft 170 kts 249°
2026-05-05 18:07 35.34223 25.39622 2519 ft 169 kts 248°
2026-05-05 18:07 35.33718 25.38314 2509 ft 171 kts 248°
2026-05-05 18:08 35.33208 25.36998 2508 ft 171 kts 248°
2026-05-05 18:08 35.32794 25.35648 2430 ft 169 kts 264°
2026-05-05 18:08 35.32836 25.34230 2276 ft 167 kts 274°
2026-05-05 18:08 35.32958 25.32838 2026 ft 159 kts 275°
2026-05-05 18:09 35.33117 25.31580 1894 ft 137 kts 274°
2026-05-05 18:09 35.33238 25.30496 1769 ft 126 kts 273°
2026-05-05 18:09 35.33280 25.29415 1681 ft 127 kts 264°
2026-05-05 18:09 35.33267 25.28338 1489 ft 129 kts 262°
2026-05-05 18:10 35.33292 25.27250 1272 ft 127 kts 278°
2026-05-05 18:10 35.33424 25.26185 1100 ft 127 kts 271°
2026-05-05 18:10 35.33485 25.25102 1081 ft 127 kts 270°
2026-05-05 18:10 35.33563 25.24019 999 ft 128 kts 274°
2026-05-05 18:11 35.33615 25.22938 783 ft 127 kts 273°
2026-05-05 18:11 35.33682 25.21873 569 ft 124 kts 277°
2026-05-05 18:11 35.33762 25.20829 465 ft 124 kts 272°
2026-05-05 18:11 35.33871 25.19786 270 ft 120 kts 276°
2026-05-05 18:12 35.33940 25.18747 110 ft 123 kts 271°
2026-05-05 18:12 35.33987 25.17815 91 ft 85 kts 271°
2026-05-05 18:12 35.34022 25.17350 87 ft 24 kts 278°
2026-05-05 18:12 35.34043 25.17201 90 ft 9 kts 276°
2026-05-05 18:13 35.34038 25.17147 91 ft 3 kts 250°
2026-05-05 18:13 35.34027 25.17140 88 ft 2 kts 204°
2026-05-05 18:13 35.34006 25.17129 89 ft 2 kts 204°
2026-05-05 18:13 35.33997 25.17109 91 ft 4 kts 244°
2026-05-05 18:14 35.33978 25.17063 87 ft 8 kts 235°
2026-05-05 18:14 35.33946 25.17078 88 ft 6 kts 105°
2026-05-05 18:14 35.33932 25.17146 86 ft 10 kts 98°
2026-05-05 18:14 35.33922 25.17243 87 ft 13 kts 94°
2026-05-05 18:15 35.33918 25.17316 87 ft 0 kts 90°
2026-05-05 18:15 35.33918 25.17337 87 ft 7 kts 91°
2026-05-05 18:15 35.33882 25.17369 88 ft 8 kts 178°
2026-05-05 18:16 35.33833 25.17351 86 ft 8 kts 243°
2026-05-05 18:16 35.33832 25.17297 86 ft 8 kts 276°
2026-05-05 18:16 35.33827 25.17233 85 ft 6 kts 214°
2026-05-05 18:16 35.33797 25.17245 86 ft 5 kts 159°
2026-05-05 18:17 35.33784 25.17285 88 ft 5 kts 90°
2026-05-05 18:17 35.33794 25.17295 90 ft 1 kts 28°
2026-05-05 18:17 35.33801 25.17299 88 ft 1 kts 23°
2026-05-05 18:17 35.33805 25.17301 88 ft 0 kts 22°
2026-05-05 18:18 35.33795 25.17308 87 ft 0 kts